METEOSAT-9 (MSG-2)

Last updated on Nov. 21, 2019, 4:15 a.m. UTC

1 28912U 05049B   19323.94032969  .00000023  00000-0  00000+0 0  9994
2 28912   3.9823  70.8400 0000892 167.5255 162.4880  1.00277420 50993
UTC
Height (km)
Latitude
Longitude
Inclination
Orbital Period
UTC large
Height (km)
Speed (km/s)
/
Latitude / Longitude
Inclination (degrees)
Orbital Period (minutes)
Azimuth
Elevation
Range (km)
Doppler Factor
iOS Compass Heading
iOS Angle

Next 30 passes for location: Hong Kong

Rise time Rise Azimuth (degrees) Set time Set Azimuth (degrees) Duration Max altitude (degrees)

No matching passes for this satellites